Regional Weather Roundup
Issued by NWS

Home | Current Version | Previous Version | Graphics & Text | Print | Product List | Glossary On
Versions: 1 2 3 4 5 6 7 8 9 10 11 12 13 14 15 16 17 18 19 20 21 22 23 24 25 26 27 28 29 30 31 32 33 34 35 36 37 38 39 40 41 42 43 44 45 46 47 48 49 50
929
ASUS43 KFSD 250210
RWRSD

WEATHER ROUNDUP FOR SOUTH DAKOTA
NATIONAL WEATHER SERVICE SIOUX FALLS SD
900 PM CDT MON JUL 24 2017

NOTE: "FAIR" INDICATES FEW OR NO CLOUDS BELOW 12,000 FEET WITH NO
SIGNIFICANT WEATHER AND/OR OBSTRUCTIONS TO VISIBILITY.


SDZ001>005-009-010-012>017-250300-
NORTHWEST AND NORTH CENTRAL SOUTH DAKOTA

CITY           SKY/WX    TMP DP  RH WIND       PRES   REMARKS
FAITH            N/A     87  65  47 E13       29.81R
MOBRIDGE       CLEAR     78  67  68 E15G24    29.78S
$$

SDZ012>016-024>037-041>051-057-063-072>074-250300-
SOUTHWEST AND SOUTH CENTRAL SOUTH DAKOTA

CITY           SKY/WX    TMP DP  RH WIND       PRES   REMARKS
RAPID CTY ARPT CLEAR     88  50  27 NE8       29.83S
PIERRE         CLEAR     89  58  34 SE20G25   29.74R
CUSTER         CLEAR     81  43  26 E16       30.03S
ELLSWORTH AFB  CLEAR     91  49  23 E6        29.83S
PHILIP         CLEAR     91  63  39 NE9       29.74R
PINE RIDGE     CLEAR     86  55  34 E7        29.83R
SPEARFISH      LGT RAIN  86  52  30 E9        29.89R
WINNER         FAIR      81  69  67 S24G36    29.80S
$$

SDZ004>011-016>023-039-040-250300-
NORTHEAST SOUTH DAKOTA

CITY           SKY/WX    TMP DP  RH WIND       PRES   REMARKS
ABERDEEN       CLOUDY    75  67  76 SE13      29.85F
WATERTOWN      PTCLDY    75  65  70 SE10      29.90F
BROOKINGS      CLOUDY    74  65  73 SE16      29.92F
SISSETON         N/A     71  67  87 SE15      29.89F
$$

SDZ017-020-022-023-036>040-048>070-250300-
SOUTHEAST SOUTH DAKOTA

CITY           SKY/WX    TMP DP  RH WIND       PRES   REMARKS
SIOUX FALLS    MOCLDY    78  66  66 SE13G23   29.92S
HURON          CLEAR     79  66  64 SE17G24   29.82R
CHAMBERLAIN    CLOUDY    85  62  44 SE10      29.78R
MITCHELL       MOCLDY    82  67  60 SE18G25   29.84R
YANKTON        CLOUDY    80  66  62 SE14      29.89R
$$

ABBREVIATIONS USED IN REMARKS
   TC - TEMPERATURE IN CELSIUS
  WCI - WIND CHILL INDEX
   HX - HEAT INDEX
  VSB - VISIBILITY





USA.gov is the U.S. government's official web portal to all federal, state and local government web resources and services.